Location: Arboyeti
(42.1122°N, 44.6017°E)
Time: 04:20:40
(UTC+00:00)

Cosmos 2333 Rocket - Pass Details

Date: 19 April 2021
Orbit: 838 x 864 km, 70.8° (Epoch: 09 May)

Event Time Altitude Azimuth Distance (km) Brightness Sun altitude
Rises 18:05:57 0° 321° (NW) 3,448 6.8 -23.1°
Reaches altitude 10° 18:08:58 10° 307° (NW) 2,503 5.7 -23.5°
Maximum altitude 18:13:10 21° 260° (W) 1,824 4.3 -24.1°
Drops below altitude 10° 18:17:19 10° 212° (SSW) 2,479 4.5 -24.7°
Enters shadow 18:17:33 - 211° (SSW) 2,540 4.5 -24.7°
